Weather History for Troy, MI

Change the Weather History Date:

Friday, August 30, 2013

  Actual Average (KDET) Record (KDET)
Temperature  
Mean Temperature 80 °F -  
Max Temperature 89 °F 81 °F 97 °F (1953)
Min Temperature 70 °F 63 °F 49 °F (1976)
Cooling Degree Days 14    
Growing Degree Days 30 (Base 50)    
Moisture  
Dew Point 67 °F    
Average Humidity 68    
Maximum Humidity 94    
Minimum Humidity 40    
Precipitation  
Precipitation 0.00 in - - ()
Sea Level Pressure  
Sea Level Pressure 29.92 in    
Wind  
Wind Speed 5 mph (SW)    
Max Wind Speed 17 mph    
Max Gust Speed 25 mph    
Visibility 8 miles    
Events Rain    
Averages and records for this station are not official NWS values.
T = Trace of Precipitation, MM = Missing Value Source: NWS Daily Summary

Daily Weather History Graph

Daily Weather History Graph

Search for Another Location

Airport:

Trip Planner

Search our weather history database for the weather conditions in past years. The results will help you decide how hot, cold, wet, or windy it might be!

Date:

Astronomy

Aug. 30, 2013 Rise Set
Actual Time 6:55 AM EDT 8:09 PM EDT
Civil Twilight 6:26 AM EDT 8:38 PM EDT
Nautical Twilight 5:51 AM EDT 9:13 PM EDT
Astronomical Twilight 5:14 AM EDT 9:50 PM EDT
Moon 1:29 AM EDT (8/30) 4:28 PM EDT (8/30)
Length of Visible Light 14h 12m
Length of Day
13h 14m
Waning Crescent, 29% of the Moon is Illuminated
Aug 30
Waning Crescent
Sep 5
New
Sep 12
First Quarter
Sep 19
Full
Sep 26
Last Quarter

Hourly Weather History & Observations

Time (EDT) Temp. Heat Index Dew Point Humidity Pressure Visibility Wind Dir Wind Speed Gust Speed Precip Events Conditions
12:14 AM 76.5 °F - 66.6 °F 71% 30.04 in 10.0 mi SSW 3.5 mph - N/A   Clear
12:35 AM 76.1 °F - 66.6 °F 72% 30.05 in 10.0 mi SW 3.5 mph - N/A   Clear
12:54 AM 75.7 °F - 66.4 °F 73% 30.04 in 10.0 mi Calm Calm - N/A   Clear
1:15 AM 75.4 °F - 66.6 °F 74% 30.05 in 10.0 mi Calm Calm - N/A   Clear
1:35 AM 74.5 °F - 66.7 °F 77% 30.05 in 10.0 mi Calm Calm - N/A   Clear
1:54 AM 74.3 °F - 66.9 °F 78% 30.05 in 10.0 mi Calm Calm - N/A   Clear
2:15 AM 73.6 °F - 67.1 °F 80% 30.04 in 10.0 mi Calm Calm - N/A   Clear
2:35 AM 72.7 °F - 67.3 °F 83% 30.04 in 10.0 mi Calm Calm - N/A   Clear
2:54 AM 72.0 °F - 67.3 °F 85% 30.04 in 10.0 mi Calm Calm - N/A   Clear
3:15 AM 71.4 °F - 67.5 °F 87% 30.03 in 7.0 mi Calm Calm - N/A   Clear
3:35 AM 72.0 °F - 67.6 °F 86% 30.03 in 7.0 mi Calm Calm - N/A   Clear
3:54 AM 71.8 °F - 67.6 °F 87% 30.02 in 7.0 mi Calm Calm - N/A   Clear
4:15 AM 71.1 °F - 67.8 °F 89% 30.02 in 5.0 mi Calm Calm - N/A   Clear
4:34 AM 70.7 °F - 67.6 °F 90% 30.02 in 5.0 mi Calm Calm - N/A   Clear
4:55 AM 70.9 °F - 67.5 °F 89% 30.02 in 5.0 mi Calm Calm - N/A   Clear
5:15 AM 70.7 °F - 67.1 °F 88% 30.01 in 5.0 mi Calm Calm - N/A   Clear
5:34 AM 70.2 °F - 67.1 °F 90% 30.01 in 5.0 mi WSW 3.5 mph - N/A   Clear
5:55 AM 70.2 °F - 67.1 °F 90% 30.00 in 5.0 mi Calm Calm - N/A   Clear
6:14 AM 70.7 °F - 67.3 °F 89% 30.00 in 5.0 mi Calm Calm - N/A   Clear
6:35 AM 70.2 °F - 67.3 °F 91% 30.00 in 5.0 mi WSW 3.5 mph - N/A   Clear
6:55 AM 70.0 °F - 67.3 °F 91% 29.99 in 4.0 mi SSW 3.5 mph - N/A   Clear
7:14 AM 70.2 °F - 67.5 °F 91% 30.00 in 3.0 mi SW 4.6 mph - N/A   Clear
7:35 AM 70.7 °F - 67.6 °F 90% 30.00 in 4.0 mi SW 4.6 mph - N/A   Clear
7:55 AM 70.9 °F - 68.0 °F 91% 30.00 in 4.0 mi WSW 4.6 mph - N/A   Clear
8:14 AM 71.1 °F - 68.0 °F 90% 30.00 in 4.0 mi WSW 3.5 mph - N/A   Clear
8:35 AM 71.2 °F - 67.6 °F 88% 30.00 in 4.0 mi SW 4.6 mph - N/A   Clear
8:55 AM 71.8 °F - 67.3 °F 86% 30.01 in 5.0 mi SW 4.6 mph - N/A   Haze
9:14 AM 71.8 °F - 67.1 °F 85% 29.99 in 7.0 mi SSW 5.8 mph - N/A   Clear
9:35 AM 73.8 °F - 66.6 °F 78% 29.98 in 10.0 mi SSW 6.9 mph - N/A   Clear
9:55 AM 75.9 °F - 66.4 °F 72% 29.97 in 10.0 mi SW 8.1 mph - N/A   Clear
10:14 AM 77.2 °F - 66.7 °F 70% 29.96 in 10.0 mi SSW 11.5 mph - N/A   Clear
10:35 AM 79.0 °F - 66.7 °F 66% 29.96 in 10.0 mi WSW 10.4 mph - N/A   Clear
10:54 AM 81.0 °F 83.2 °F 66.6 °F 61% 29.95 in 10.0 mi SSW 11.5 mph - N/A   Clear
11:15 AM 81.5 °F 83.9 °F 67.1 °F 61% 29.95 in 10.0 mi WSW 11.5 mph - N/A   Clear
11:34 AM 83.3 °F 85.9 °F 67.3 °F 58% 29.95 in 10.0 mi SW 8.1 mph 16.1 mph N/A   Clear
11:54 AM 84.0 °F 86.8 °F 67.1 °F 57% 29.94 in 10.0 mi WSW 10.4 mph 16.1 mph N/A   Clear
12:15 PM 84.6 °F 87.4 °F 67.3 °F 56% 29.93 in 10.0 mi SW 11.5 mph 17.3 mph N/A   Scattered Clouds
12:34 PM 84.7 °F 87.6 °F 67.3 °F 56% 29.93 in 10.0 mi SW 9.2 mph 16.1 mph N/A   Scattered Clouds
12:55 PM 86.0 °F 88.5 °F 66.6 °F 52% 29.92 in 10.0 mi SSW 16.1 mph 19.6 mph N/A   Scattered Clouds
1:15 PM 86.2 °F 88.4 °F 66.4 °F 51% 29.92 in 10.0 mi SW 13.8 mph 18.4 mph N/A   Scattered Clouds
1:34 PM 85.8 °F 87.9 °F 65.8 °F 51% 29.92 in 10.0 mi SW 12.7 mph 17.3 mph N/A   Mostly Cloudy
1:55 PM 87.3 °F 89.2 °F 65.3 °F 48% 29.91 in 10.0 mi WSW 10.4 mph - N/A   Mostly Cloudy
2:15 PM 87.8 °F 89.4 °F 64.8 °F 46% 29.90 in 10.0 mi SW 9.2 mph 17.3 mph N/A   Scattered Clouds
2:34 PM 87.8 °F 88.5 °F 63.0 °F 43% 29.90 in 10.0 mi SW 11.5 mph 20.7 mph N/A   Clear
2:55 PM 89.1 °F 90.0 °F 63.3 °F 42% 29.88 in 10.0 mi WSW 10.4 mph 18.4 mph N/A   Clear
3:14 PM 88.7 °F 89.4 °F 63.1 °F 42% 29.87 in 10.0 mi SSW 12.7 mph 21.9 mph N/A   Scattered Clouds
3:35 PM 88.9 °F 89.7 °F 63.3 °F 42% 29.85 in 10.0 mi WSW 11.5 mph 19.6 mph N/A   Clear
3:54 PM 88.7 °F 89.4 °F 63.0 °F 42% 29.85 in 10.0 mi WSW 15.0 mph 19.6 mph N/A   Clear
4:15 PM 89.2 °F 89.9 °F 63.0 °F 41% 29.84 in 10.0 mi SW 16.1 mph 21.9 mph N/A   Clear
4:35 PM 89.2 °F 89.6 °F 62.1 °F 40% 29.83 in 10.0 mi WSW 11.5 mph 20.7 mph N/A   Clear
4:54 PM 89.6 °F 90.4 °F 63.0 °F 41% 29.82 in 10.0 mi SW 17.3 mph - N/A   Clear
5:15 PM 89.1 °F 90.0 °F 63.3 °F 42% 29.82 in 10.0 mi WSW 13.8 mph 19.6 mph N/A   Clear
5:34 PM 88.2 °F 89.0 °F 63.3 °F 43% 29.81 in 10.0 mi SW 10.4 mph 19.6 mph N/A   Clear
5:54 PM 88.3 °F 89.5 °F 63.7 °F 44% 29.81 in 10.0 mi WSW 11.5 mph 17.3 mph N/A   Clear
6:15 PM 88.2 °F 89.6 °F 64.2 °F 45% 29.80 in 10.0 mi SW 9.2 mph 17.3 mph N/A   Clear
6:34 PM 87.8 °F 89.1 °F 63.9 °F 45% 29.80 in 10.0 mi SW 11.5 mph 19.6 mph N/A   Clear
6:55 PM 86.9 °F 88.3 °F 64.4 °F 47% 29.81 in 10.0 mi WSW 12.7 mph 20.7 mph N/A   Clear
7:14 PM 86.4 °F 87.8 °F 64.4 °F 48% 29.80 in 10.0 mi WSW 8.1 mph - N/A   Clear
7:34 PM 86.0 °F 87.6 °F 64.8 °F 49% 29.79 in 10.0 mi SW 10.4 mph - N/A   Clear
7:55 PM 85.5 °F 87.1 °F 64.9 °F 50% 29.80 in 10.0 mi SW 6.9 mph - N/A   Clear
8:14 PM 85.1 °F 86.9 °F 64.9 °F 51% 29.79 in 10.0 mi SW 5.8 mph - N/A   Clear
8:35 PM 84.7 °F 86.6 °F 65.3 °F 52% 29.81 in 10.0 mi SW 4.6 mph - N/A   Scattered Clouds
8:55 PM 84.7 °F 86.6 °F 65.3 °F 52% 29.81 in 10.0 mi SSW 4.6 mph - N/A   Mostly Cloudy
9:15 PM 84.4 °F 86.6 °F 66.0 °F 54% 29.81 in 10.0 mi SSW 5.8 mph - N/A   Scattered Clouds
9:34 PM 83.3 °F 86.2 °F 67.6 °F 59% 29.80 in 7.0 mi South 5.8 mph - N/A Rain Light Rain
9:55 PM 78.3 °F - 72.1 °F 81% 29.83 in 4.0 mi NNE 4.6 mph - N/A Rain Heavy Rain
10:14 PM 75.0 °F - 71.6 °F 89% 29.85 in 1.2 mi SW 5.8 mph 25.3 mph N/A Rain Heavy Rain
10:34 PM 73.8 °F - 71.6 °F 93% 29.86 in 1.0 mi South 5.8 mph - N/A Rain Heavy Rain
10:55 PM 73.4 °F - 71.6 °F 94% 29.83 in 2.0 mi SSW 4.6 mph - N/A Rain Rain
11:14 PM 73.4 °F - 71.2 °F 93% 29.82 in 2.0 mi South 12.7 mph - N/A Rain Heavy Rain
11:35 PM 73.4 °F - 71.1 °F 92% 29.82 in 10.0 mi South 4.6 mph 17.3 mph N/A Rain Light Rain
11:54 PM 73.0 °F - 70.9 °F 93% 29.82 in 10.0 mi SSW 8.1 mph - N/A   Mostly Cloudy